Location: Mizzole
(45.4833°N, 11.0500°E)
Time: 13:48:21
(UTC+00:00)

Gbstr 26 Del rocket - Pass Details

Date: 21 October 2019
Orbit: 493 x 1264 km, 51.8° (Epoch: 19 November)

Event Time Altitude Azimuth Distance (km) Brightness Sun altitude
Rises 16:48:48 0° 297° (WNW) 3,239 7.7 -5.6°
Reaches altitude 10° 16:51:03 10° 299° (WNW) 2,419 7.0 -6.0°
Maximum altitude 16:56:48 71° 24° (NNE) 1,010 4.0 -7.0°
Drops below altitude 10° 17:03:54 10° 108° (ESE) 2,961 6.0 -8.3°
Enters shadow 17:05:00 - 109° (ESE) 3,348 6.2 -8.4°
